Location: Chervonnoye
(48.6000°N, 34.4000°E)
Time: 00:56:39
(UTC+00:00)

NOAA 15 - Pass Details

Date: 03 December 2021
Orbit: 797 x 812 km, 98.7° (Epoch: 17 January)

Event Time Altitude Azimuth Distance (km) Brightness Sun altitude
Rises 16:11:40 0° 158° (SSE) 3,317 7.7 -22.8°
Reaches altitude 10° 16:14:00 10° 156° (SSE) 2,388 6.9 -23.2°
Maximum altitude 16:19:16 75° 72° (ENE) 841 4.4 -24.1°
Drops below altitude 10° 16:24:33 10° 348° (NNW) 2,396 7.1 -24.9°
Sets 16:26:54 0° 347° (NNW) 3,328 7.9 -25.3°
